Location: Boiro
(42.6475°N, 8.8834°W)
Time: 23:03:02
(UTC+01:00)

A-11 Canister half - Pass Details

Date: 03 December 2021
Orbit: 1516 x 1684 km, 47.2° (Epoch: 18 January)

Event Time Altitude Azimuth Distance (km) Brightness Sun altitude
Rises 16:53:29 0° 292° (WNW) 4,930 12.0 9.4°
Reaches altitude 10° 16:57:41 10° 277° (W) 3,946 11.9 8.8°
Maximum altitude 17:04:29 21° 234° (SW) 3,167 12.8 7.9°
Drops below altitude 10° 17:11:16 10° 191° (S) 3,919 12.1 6.9°
Sets 17:15:29 0° 176° (S) 4,886 12.2 6.3°
